{"data":{"norad_id":55594,"epoch":"2026-05-25T02:41:42.681984Z","epoch_age_seconds":68916,"freshness":"FRESH","line1":"1 55594U 23020AB  26145.11229956  .00000200  00000+0  16811-4 0  9990","line2":"2 55594  43.0034 293.3506 0001213 269.8190  90.2523 15.27577618180609","mean_motion":15.27577618,"eccentricity":0.0001213,"inclination_deg":43.0034,"raan_deg":293.3506,"arg_perigee_deg":269.819,"mean_anomaly_deg":90.2523,"bstar":1.6811e-5,"rev_number":18060,"period_min":94.266895706769,"perigee_km":482.22396587521,"apogee_km":483.88849135247,"semimajor_km":6861.1932286138,"source":"CELESTRAK","updated_at":"2026-05-25T13:38:17.839908Z"}}